Simultaneous Nadir Overpasses (SNOs) Predictions

Prediction of SNOs between FY3D and AQUA Satellite Orbit:

Table of predicted SNOs for the next 14.0 days since TLE Epoch: 8/26/2022
Index Date (FY3D) Time (FY3D) Lat,Lon (FY3D) SZA (FY3D ) Date (AQUA) Time (AQUA) Lat,Lon (AQUA) SZA (AQUA ) Distance(km) Time Diff (sec)
1 08/26/2022 23:23:41 -76.85, -4.22 112.97 08/26/2022 23:24:25 -76.85, -4.20 112.99 0.30 44
2 08/27/2022 00:14:06 75.91, 166.60 65.94 08/27/2022 00:13:32 75.91, 166.56 65.95 1.20 34
3 08/29/2022 14:50:34 76.39, -54.18 67.41 08/29/2022 14:50:39 76.40, -54.22 67.41 1.29 5
4 08/29/2022 15:41:02 -75.65, 115.71 113.43 08/29/2022 15:39:48 -75.64, 115.78 113.43 2.31 74
5 09/01/2022 05:26:59 76.78, 85.27 68.79 09/01/2022 05:27:43 76.79, 85.19 68.80 2.19 44
6 09/01/2022 06:17:28 -76.05,-104.67 112.06 09/01/2022 06:16:53 -76.04,-104.65 112.06 0.80 35
7 09/03/2022 20:53:53 -76.40, 35.03 110.72 09/03/2022 20:53:57 -76.40, 34.97 110.71 1.53 4
8 09/03/2022 21:43:51 74.15,-150.77 66.82 09/03/2022 21:42:37 74.09,-150.98 66.77 9.74 74
9 09/06/2022 11:30:24 -77.00, 173.59 109.05 09/06/2022 11:31:06 -77.00, 173.65 109.07 1.43 42
10 09/06/2022 12:20:50 76.13, -15.75 69.95 09/06/2022 12:20:14 76.13, -15.72 69.95 0.99 36
11 09/09/2022 02:57:12 76.36, 124.39 71.18 09/09/2022 02:57:15 76.37, 124.29 71.19 2.94 3



Historial Predications of SNOs between FY3D and AQUA
